meiwen.id,meiwen.ts,meiwen.title,meiwen.lanmu,meiwen.shijian,meiwen.neirong,meiwen.yuedu_cishu,meiwen.zuozhe
101,"2018-10-27 00:31:31",雪思花,,2018-05-25,,36,听雨轩
102,"2018-10-27 00:31:32",知宁,,2018-05-25,,23,听雨轩
103,"2018-10-27 00:31:34",正气,,2018-05-25,,20,听雨轩
104,"2018-10-27 00:31:35",仙乐,,2018-05-25,,18,听雨轩
105,"2018-10-27 00:31:38",仙境,,2018-05-25,,18,听雨轩
106,"2018-10-27 00:31:40",桃园溪,,2018-05-25,,22,鑫仙
107,"2018-10-27 00:31:41",征途（五）,,2018-05-25,,23,鑫仙
108,"2018-10-27 00:31:44",仙人指路,,2018-05-23,,25,听雨轩
109,"2018-10-27 00:31:47",春耕,,2018-05-23,,14,听雨轩
110,"2018-10-27 00:31:50",学涯,,2018-05-23,,24,听雨轩
111,"2018-10-27 00:31:53",欢饮,,2018-05-23,,24,听雨轩
112,"2018-10-27 00:31:58",心花,,2018-05-23,,16,听雨轩
113,"2018-10-27 00:32:03",戏如人生,,2018-05-23,,45,听雨轩
114,"2018-10-27 00:32:07",座上宾,,2018-05-23,,6,听雨轩
115,"2018-10-27 00:32:11",前世,,2018-05-23,,10,听雨轩
116,"2018-10-27 00:32:15",仙乐,,2018-05-23,,12,听雨轩
117,"2018-10-27 00:32:20",聚仙阁,,2018-05-23,,10,听雨轩
118,"2018-10-27 00:32:25",风骨,,2018-05-22,,22,听雨轩
119,"2018-10-27 00:32:28",人后,,2018-05-22,,13,听雨轩
120,"2018-10-27 00:32:32",静守,,2018-05-22,,33,听雨轩
121,"2018-10-27 00:32:37",家思,,2018-05-22,,17,听雨轩
122,"2018-10-27 00:32:39",智商,,2018-05-22,,16,听雨轩
123,"2018-10-27 00:32:43",君归何时,,2018-05-22,,75,听雨轩
124,"2018-10-27 00:32:46",茶香,,2018-05-22,,16,听雨轩
125,"2018-10-27 00:32:51",风水,,2018-05-22,,11,听雨轩
126,"2018-10-27 00:32:56",善谋,,2018-05-22,,6,听雨轩
127,"2018-10-27 00:32:58",醉花,,2018-05-22,,43,听雨轩
128,"2018-10-27 00:33:00",南子吟（五）,,2018-05-22,,9,鑫仙
129,"2018-10-27 00:33:03",南子吟（四）,,2018-05-22,,25,鑫仙
130,"2018-10-27 00:33:04",异客心（二十二）,,2018-05-22,,15,鑫仙
131,"2018-10-27 00:33:08",谈“网络新闻”,爱情散文,2018-05-15,,62,小小的太阳
132,"2018-10-27 00:33:11",走出苦难的一个女人,爱情散文,2018-03-08,,527,一均老大
133,"2018-10-27 00:33:13",寂寞沙洲冷,爱情散文,2018-02-11,,558,从玉杰写字的地方
134,"2018-10-27 00:33:15",再近一点,爱情散文,2018-02-10,,494,雪留痕
135,"2018-10-27 00:33:17",《初见》,爱情散文,2018-01-16,"《初见》 狂风无情地撕打着火车站的一切，尽管人们将自己裹成棉球，还是躲不过寒气的袭卷，冷得搓手跺脚，瑟瑟发抖。 我幻想了无数种初见他的画面，画面很美……时间在寒冬里流淌，我的心跳越来越快，身体却不觉得冷。我的目光停滞在出口站，16:35了还听不到火车到站的声音，心里波涛汹涌，五味杂陈。时间和我都在挣扎，火车晚点了将近二十分钟，直到16:53天空飘了三片雪，我们出现在彼此羞涩的视线里面。 虽然没有在大雪纷飞中邂逅，但是自从他到来，我的世界都很美！看着他冻得微红的笑脸在寒风里绽放，一股暖流包围着我们。我们步行去朋友住的地方，速度快得刻意也停不下来。我们十指相扣，幸福占据了我的一切。 我们到朋友住的地方坐聊了一会儿，烤炉将爱情升温，她却不知道我们是初次见面，羞涩又爬上我的脸。我们去吃了火腿粉，又去西餐店买了一些薯条，可乐，鸡腿等。 那一晚，我们彻夜无眠……（美文网：www.meiwenting.com） 第二天，我们如约去了草海湖畔，路却被工程建设阻隔。下午三点左右，爸妈催我带他回家，我们怀着激动的心情回家了！正好家里有亲人做客，晚饭后我们打了几盘麻将，又去打牌。他们逐渐睡去，我和他依旧通宵！ 我们用桶面代替了早餐，就携手登上了我们这最高的一座山，一路都洋溢着幸福快乐。一段考验爱情的忧伤小插曲出现了，痛斥着我们的心，不过算是喜剧收场。他离开了我家，出发前想给他一个拥抱却心有余而力不足。经过几天的相处，感情逐渐沸腾，互相的爱深入骨髓！ 现在已是凌晨，相思还在纠缠着我！说好要为我们的初见写一篇文章，所以在辗转反侧中写下这些文字，以纪念我们的初见。2018.01.16.00:51 美文",710,晓米
136,"2018-10-27 00:33:18",酒入愁肠，化作相思泪,爱情散文,2018-01-15,,985,从玉杰写字的地方
137,"2018-10-27 00:33:21",故事缓缓说,爱情散文,2018-01-15,,430,杨先生
138,"2018-10-27 00:33:25",兔说爱情,爱情散文,2017-12-18,爱吃糖的傻兔子突然发现身边全是动物，这次要说的是一只兔子，她的名字就叫兔子，人如其名，身材娇小，额头前有着密不透风的刘海眼不大却冒着精光尤其看到吃的时候不管窝的上空是否有鹰盘旋都会拔足扑去兔子天生胆小，这只却不一样，碰到喜欢的东西往往是什么都不顾的往上碰，可她偏偏又比其他兔子都幸运，碰到的不是猎人，而是一个珍藏了15年的幸运。如同电视剧里烂俗的情节一样，在一个看管并不算严的微机课，一个喜欢惹事生非的闺蜜，一个爱上兔子的人。好像每个人的青春里都有一个不顾一切喜欢你的人或者让你爱的无所畏惧的人。兔子说女生其实会很容易喜欢上陪她聊天到很晚的人，我一直以为这是假的。兔子的爱情就像是兔子的洞，有很多出入口，有很多残缺，但终归还是连在一起。最开始的时候就好像是挚友，到了后来给的太多就觉得贱了，在到后来就觉得厌了。我听过很多故事，也见过很多人，关于爱情的细节好像都关于一场大雨，一盒巧克力，一个比自己还要高的玩具。“我不喜欢他送给我巧克力，因为吃了就没了。”年轻的爱情里，让我们感动的不是豪车，不是别墅。更多的可能是不经意的细节，在那个还没有物欲横流的年代，在那个相对来说单纯的年纪。爱情才有着应该有的样子兔子的爱情便是如此，有着一段爱情所应该有的所有特征。牵手，相拥，礼物，宠溺，忍让，沉默，争吵，释然，或许也会分手。前几天和兔子聊天，突然就聊到了兔子的初恋，她说了很多，内容是什么我也记不清了，她自己絮絮叨叨的说了快一个小时，我很惊诧，都过去这么久很多细节她还记得，而且记得很清楚。清楚到让我以为他们还没有分手。青春一过便步入中年人的轨迹，唯一能让你回忆青春的东西不是美好，而是疼痛。,684,三哥
139,"2018-10-27 00:33:30",等你拥着雪花归来,爱情散文,2017-12-07,"等你拥着雪花归来 我在等待，等待那场言而无信，姗姗来迟的雪，等待那个意气风发，满腹经纶的你。 一片雪花曾信誓旦旦地告诉我，她会带上兄弟姐妹，亲朋好友与我邂逅在初冬。从那以后，我朝思暮想，左顾右盼……草枯了，花睡了，树瘦了，水干了，风来了，雨到了，一切准备就绪，大雁离去给她让了位，腊梅盛开给她备了茶，她却始终不来，让我灰心丧气，愁眉苦脸。柳枝在风中舞动，只为等待雪的背影，翠竹在雨中萧索，只为等待雪的声音，万籁俱寂，她却不肯现身，寒风刺骨，她却不愿露面。日复一日地等，夜以继日地盼，始终杳无音讯，不知消失在谁的世界，沉沦在谁的海洋。 那晚，我突然做了个梦，梦里雪对我说，她要等你一起来，你就是她迟到的理由，就是她失约的借口。一粒红豆在我心中萌芽，芽尖是你灿烂的笑脸；芽身是你矫健的躯体，芽根是你青涩的照片。因为这个梦，我辗转反侧，度日如年，脑海全被雪和你占据。 我相思成疾，彻夜难眠。泪水湿了枕头，红了眼眶。你的名字挥之不去，总是悄悄跳到我的书上，偷偷溜到我的笔尖。一切都在与我作对，你派他们用相思之苦来折磨我，让我上课走神，走路沉思，睡觉无眠。雪花也很固执，我抱着琵琶，弹破了手指，我拥着书本，读遍了诗词，任我千呼万唤都不出来。一首首歌曲，唱不完我的眷恋，一段段音乐，流不尽我的相思。 梅花就要绽放了，你还不来；红豆就要开花了，你还不到，那我就在冬日丽唱歌等你，等你拥着雪花归来……（美文网：www.meiwenting.com）",1913,晓米
140,"2018-10-27 00:33:32",弹一曲诗词缘,爱情散文,2017-12-07,"弹一曲诗词缘 一诗一世界，一曲一双人…… 诗是纯美的象征，是高洁的代名词，一位白衣少年吹笛吟诗，就是一幅绝世画卷。诗里流淌着他的灵魂，涌动着他的心跳，沉淀着他的情思；曲是悠扬的化身，是温婉的同义词，一位红装少女抚琴起舞，就是一道靓丽风景。曲里浮荡着她的忧伤，装载着她的惆怅，卷裹着她的梦想。一首诗歌两种情，一曲琵琶两半心。 一方落叶，一处飘雪。她踩在金黄银杏叶上，沙沙作响，那是思慕的声音。红裙扫过，黄叶飞扬，夕阳中的蝴蝶姗姗起舞，残枝上的鹧鸪并肩鸣唱。她坐在湖边向北凝望，心中无限遐想，打湿红装的初冬雨，还是相思泪？他走在瑟瑟冷风中，呼呼作响，那是想念的声音。孤雁掠过，白雪纷飞，枯草中的碎石轻轻滚动，湖面上的鸳鸯温暖对方。他站在湖边向南凝望，促激心跳的是刺骨风，还是相思梦？ 她听到有人在吟诗，他听到有人在浅唱。薄雾笼罩他的粉红的围巾，白雪也不放过他灰黑格子的那条，紧紧地覆盖着。她和他同时抬头，举目四望，蓦然回首，却寻不到对方的眼睛，觅不到对方的身影。一条彩色的爱情将他们牵引，漂洋过海也看不到，翻山越岭也瞧不着。""君问归期未有期，巴山夜雨涨秋池""紧随相思泪而下，""何当共剪西窗烛，却话巴山夜雨时""遂跟红豆而发。拾一片银杏叶，把诗情和眷恋珍藏；剪一段雨衣曲，将画意和相思安放…… 一诗一世界，一曲一双人。红装等你归来，你赋诗，我抚琴，弹一曲诗词缘，我们一起吟唱……（美文网：www.meiwenting.com） 2017.11.29 20:54",863,晓米
141,"2018-10-27 00:33:34",不离不弃,爱情散文,2017-12-05,"感谢你微笑着向我走来，尽管岁月把我的缺点暴露无疑。 --致爱人 那年，春天，我们七八岁。 在好像烟鬼的黑牙缝里，一片片矮低的平房，一群懵懂的孩子们，带着有些惊恐的目光围着你。 阳光照射在你黝黑的皮肤上，你的脸满是得意之色，手里把玩着缠绕脖上的一条灰色小蛇。 我就站在离你不到五米的距离。那时，是我第一次清楚的记下你。（美文网：www.meiwenting.com） 那年，初夏，我们二十二岁。 你已经远离了这里，而我们却在邻居家偶遇。 你炙热的眼神，望向我，就好像柔情似水的月。我似乎看到一颗带着充满渴望奢求的心，那种依依不舍而浮起的情感，让我直到现在，依然无法忘记！ 那年，深秋，我们二十五岁。 母亲为我准备相亲。 我总觉得自己配不上你，空有一副皮囊，仅此而已。美文 一颗游子的心终于还是与你擦肩而过。 那年冬季，我们三十一岁。 经历无数坎坷，带着无限心酸和疲惫的我，回到了家乡。 有趣的是，母亲的安排下，相亲的对象，依旧是你…… 我轻抿薄唇，我们带着腼腆相视而笑…… 半年后，我穿上了最美的嫁衣，你我站在亲友前，宣誓今生不离不弃。 那时，一颗孝顺相夫教子的心，时刻充斥着我。 然而，婚后却有些不尽人意，纵有万般误解和无奈，幸运的是，我们的心依然坚定，即便是站在婚姻的风口浪尖，我们依然十指相扣，紧紧相依。 即便是我们不曾拥有轰轰烈烈的爱情，即便是那爱就像清澈的湖水。却也不需要感动天地，而又绵延柔长。 你温暖的手，赋予我全部的爱。感谢你一路上对我的包容，允许我偶尔偷懒，允许我偶尔霸道，允许我的小脾气。 不求你高官厚禄，不求你飞黄腾达，只要你幸福安康。 缘分，让我们相遇，即使岁月已经无情的催老了我们的容颜。 今生，你若不离，我定不弃！！！ 爱你的老婆：李响亲笔",1367,素手挽发
142,"2018-10-27 00:33:40",相遇,爱情散文,2017-11-30,"和你在春天初遇 你的回眸一笑 烙印在我的脑海 陪我历经岁月悠长 / 和你在夏天盼遇（美文网：www.meiwenting.com） 抹不去的思念 斜阳里的微笑 铭刻心间难以忘却 / 和你在秋天巧遇 秋天的湖畔美文 是那样的恬静宜人 你是如此的文静优雅 / 和你在冬天知遇 你是我今生难舍的牵挂 希望你偶尔想起我时 记得我给了你完整的心",1613,心源清波
143,"2018-10-27 00:33:43",弹一曲诗词缘,爱情散文,2017-11-29,"弹一曲诗词缘 一诗一世界，一曲一双人…… 是是纯美的象征，是高洁的代名词，一位白衣少年吹笛吟诗，就是一幅绝世画卷。诗里流淌着他的灵魂，涌动着他的心跳，沉淀着他的情思；曲是悠扬的化身，是温婉的同义词，一位红装少女抚琴起舞，就是一道靓丽风景。曲里浮荡着她的忧伤，装载着她的惆怅，卷裹着她的梦想。一首诗歌两种情，一曲琵琶两半心。 一方落叶，一处飘雪。她踩在金黄银杏叶上，沙沙作响，那是思慕的声音。红裙扫过，黄叶飞扬，夕阳中的蝴蝶姗姗起舞，残枝上的鹧鸪并肩鸣唱。她坐在湖边向北凝望，心中无限遐想，打湿红装的初冬雨，还是相思泪？他走在瑟瑟冷风中，呼呼作响，那是想念的声音。孤雁掠过，白雪纷飞，枯草中的碎石轻轻滚动，湖面上的鸳鸯温暖对方。他站在湖边向南凝望，促激心跳的是刺骨风，还是相思梦？ 她听到有人在吟诗，他听到有人在浅唱。薄雾笼罩他的粉红的围巾，白雪也不放过他灰黑格子的那条，紧紧地覆盖着。她和他同时抬头，举目四望，蓦然回首，却寻不到对方的眼睛，觅不到对方的身影。一条彩色的爱情将他们牵引，漂洋过海也看不到，翻山越岭也瞧不着。""君问归期未有期，巴山夜雨涨秋池""紧随相思泪而下，""何当共剪西窗烛，却话巴山夜雨时""遂跟红豆而发。拾一片银杏叶，把诗情和眷恋珍藏；剪一段雨衣曲，将画意和相思安放…… 一诗一世界，一曲一双人。红装等你归来，你赋诗，我抚琴，弹一曲诗词缘，我们一起吟唱……（美文网：www.meiwenting.com） 2017.11.29 20:54",590,晓米
144,"2018-10-27 00:33:45",一段深情,爱情散文,2017-11-20,"独自生活在陌生的城市 孤独中带着一丝希望 一个人静静地呆在空荡荡的屋里 还浮想着泡沫剧里甜美的画面 为什么我没人爱？ 在往事中思索（美文网：www.meiwenting.com） 才发现原来我错过了所有 那个火车站偶遇的小伙 那个只见过一面的小伙 那个从没说过喜欢我的小伙 那个连QQ签名都随我更改的小伙 那个直到毕业了还给我电话的小伙美文 默默地流下几行清泪 原来我一直幸福的被他倾慕好多年 我错过了你 在你我最美的年纪 一段深情封冻在寒冬",1118,三月街
145,"2018-10-27 00:33:47",《看，那朵在暮秋里悄悄绽放的情花》,爱情散文,2017-11-11,"金风玉露悄然离开，银装素裹即将登台。我与秋风依依惜别，踏着余晖漫步走在夕阳中，拾一片银杏叶，将它永久地珍藏…… 在鉴湖旁的石头上静坐，倾听着大地轻抚落花的声音。残荷在用她最后的泪痕向我作别，翠竹在一旁怡然不动，仿佛秋的离去跟他漠不相关；湖畔的垂柳轻轻摇曳着，她在向我挥手，内心的惆怅伴着忧伤油然而生。 夜幕降临，月光倾泻了一地，洒落在草地里，花丛中，湖面上，留给树梢的就只有几点斑驳，稀稀落落。湖边的一切像我一样地瑟瑟发抖，正准备回宿舍添加衣服，突然浮现在脑海的这一幕却将我定住：暗黄的灯光笼罩着木椅上的白裙少女，她手捧一本书细细品读，娇羞颔首，脸上写满了笑容和情诗。她在幻想着那个吹笛的素衣少年，想着他青涩俊朗的容颜，想着他晶莹剔透的双眼，想着他动人心弦的诗篇……眨眼间，我看到一朵美丽的情花在她的书上绽放，那姿态是如此的温婉柔美，是如此的令人陶醉。看她静静地坐着，又起身徘徊，最后来到一架精美的古筝旁边，""低眉信手续续弹，说尽心中无限事""立刻上演。悦耳动听的音符冲破心门，刻在我的心间，琴声不断，相思绵绵…… 不知在那呆坐了多久，才因为电话铃声回过神来，所有都烟消云散，没有了白裙少女，没有了素衣少年，没有了音乐和眷恋。这才发现自己早已被夜色包围，没有一个行人，没有一颗星星，只有孤月一轮和路灯几盏。寒风刺骨，衣袂飘摇，我疾步回到宿舍时，已经夜深人静。怕吵醒熟睡的室友，我匆匆洗漱完就迫不及待地钻进被窝，刚刚那一幕又映入眼帘，辗转反侧，彻夜无眠。 借一颗明星，将它捧在手里，跟着萤火虫去看花开菩提，去听夜的孤寂，去和繁花落叶拥抱，去听冬的心跳。（美文网：www.meiwenting.com） 看，暮秋里悄悄绽放的那朵情花…",792,晓米
146,"2018-10-27 00:33:51",悟不悟,爱情散文,2017-11-10,记得上大学的时候，有次出门游玩感慨了一句，不过是从一个城市到另一个城市，而城市和城市之间是如此的相似，相隔四百多公里，竟也感受不到多大的区别。我想，那时候可真的是自以为是的下了结论吧。后来，或许是心境不一样了，再也没能那样孤僻的认为，无论行走至何处总是一样的风景。大约每个时段的自己，和当时的境遇还有当时遇到的人，都有千丝万缕的关系吧。也曾经爱的很没有自我。仅仅为了感受熟悉的气息，走四十分钟去到你的学校，即使当时你已经不在那个校园里了。我一圈一圈的走啊，一遍一遍的回忆一起走在这路上的时光，想象着你还在我身边。现在想来，那时真称得上是年少轻狂了。真的是应了那句话，在所有人不看好的时候，我们在一起了，在所有人以为我们会一直在一起的时候，我们分开了。可能你的人生进步的太快，我跟不上，以致于距离远到来不及好好道个别，来不及认认真真说一句再见。四百公里外的那个城市，后来我又去过一次，一个人，却再也没能找到对那座城市熟悉的感觉。还好后来的我们都各自幸福。过了这么些年，我也终于明白，风景总是不一样的。在我们的城市里看水天一色，和在别处看水天一色，不一样。有地方是江天一色无纤尘，也有是洞庭春水碧云天，亦有海天一色风起雨落。以前看来都一样，应该是只把注意力放在了人的身上，只要身边的人，还是那个人，走到哪里都不会惧怕陌生，自然也不在意身边的风景。可是现在不一样了，再也不会像年少时那样心里只装一个人，再不装其他了。成长可能就是这样，连心也变大了。想到处走一走，看一看，无论是怎样的风景，都想看，都想和身边的人一起去欣赏,440,二师公7
147,"2018-10-27 00:33:56",迈不过的坎,爱情散文,2017-11-08,"在朋友圈里，你发了一张有点退色的旧照片，那时的他，还是小伙子，高大、神气。 在图片下方，你还留下一小段心情文字。他身患癌症，几天前离开了人世。看得出来文字里含着你的泪水，那里堆积着你的思念，一往情深的思念！ 知道他身患癌症时，你心里很难过，你曾经多少次的冲动过，很想飞过去看望他，你在内地，他却在沿海。 在交通发达的现如今，你知道这不是距离的问题，你们各自都有了家庭，还都有了可爱的孩子，太多的纠结，不容易啊，实在是不容易！ 当你收到他家人发来他逝世的消息时，窗外，正飘着朦胧细雨，你躲在没人的地方，失声痛哭，好象失去了脊梁，一身软软的，你想起了太多的遗憾，还不停地责备着你自己！（美文网：www.meiwenting.com） 在朋友圈里，你借自己是做保险工作的平台形象，勇敢的发出了这张旧照片，附上的这段短文里，提醒朋友们要珍惜、保重！实际上，你是没法掩饰住你自己，你自己内心里想的那些事。 你感叹着，感叹着人生面对的坎坷太多！",627,一元兄
148,"2018-10-27 00:33:58",觉得别人不理解你？你的悲欢，其实与世界无关,爱情散文,2017-10-17,"前一段时间，我有一个哥们喜欢上了一女孩，跑来跟我聊天，直把那女孩的优点说的天花乱坠，极尽文艺矫情之能事。 后来好长时间再也没有动静了，我便在微信上找到他。 “你和上次那女孩怎么样啦？那么久都没消*息，你该不会一个人闷声幸福去了吧？” 他回我一个沮丧的表情，“满屏辛酸泪，别提啦，吹了……” 我好奇一时没忍住，便问道：“我擦，吹啦？怎么吹的？” 他说了一通，原来都是因为一件事情。（美文网：www.meiwenting.com） 那次他约人姑娘出门，一路上还聊得很愉快，在公交车上就出事啦。天气很冷，车上人不多但窗子没开就有点闷，他们在后排的两个位置坐下。路途较远，他们一路无话，这哥们坐立不安，时不时视线打量着姑娘，或许是略带猥琐的。那姑娘可能对他也没那方面意思，始终对他的举动无动于衷，专心的望着窗外。癫狂人生APP是脑病患者的网上家园，来自四海八荒的朋友组成了癫痫患者的朋友圈，开启属于癫痫患者的精彩人生。 这时候他忍不住了，心想两人也相处了一段时间，现在坐在一起距离那么近，气氛貌似也不错，那么好的机会不抓住以后可能就没啦，于是，这家伙竟然表白了。 听到这我整个人是懵的，感觉被什么狠狠地打了一下。他说，那姑娘当时反映冷淡，来了句：“你喜欢我，干嘛要告诉我？关我什么事吗？”并且回去以后，那姑娘就把他拉黑了。真是“表白一入深似海，从此姑娘是路人”。 1、 “我到现在都不是很明白发生了什么事，难道是我表白的方式错啦？”他说道。 “不是你的表白方式错啦，是你压根就不应该表白好吗！”美文 爱原本是一个人的事情，你爱她，细究起来是你自己的事，跟她是无关的。而且表白本身就带着满满的企图，是一种需要被满足的诉求。两个人，彼此都从对方身上获得相处的快乐，这种快乐本身就足够了，你又为何对我横生诉求？ 没到两情相悦的地步，表白一定会被辜负。 2、 鲁迅先生在《而已集》里写到一段话：楼下一个男人病得要死，那间壁的一家唱着留声机，对面是弄孩子。墙上有两个人狂笑，还有打牌声。河中的船上有女人哭着她死去的母亲。人类的悲欢并不相通，我只是觉得他们吵闹。 先生总是能够一眼洞穿人生的真相，这些场景虽然很凄冷但却是我们这个世界每天都上演的，“楼下一个男人病得要死”“墙上两个人狂笑”这些场景可能发生在身边，可能发生在不知道的远方。 从全人类的角度说，我们的悲欢是相通的，因此我们能够共情，远方同胞的苦难、身边亲朋的悲喜，我们都会被牵动，这是人与人之间沟通的纽带。但是作为个体来说，每个人都有各自的悲欢，我们不可能也不必时时与他人产生共鸣，也不必时时响应他人的情绪、诉求。别人常常不能回应我们的情绪，是再正常不过的事情了。 3、 坦白地说，我自己很多时候都有去寻求倾诉、渴望他人了解的冲动。 前一段时间，我突然发现自己双眼眼球不能转动，去医院检查之前看了百度上的很多资料，把自己的症状一一对上，越发不安起来。 去医院前夜想了很多事情，偏偏就睡不着，渴望凭空出现一个人来安慰自己，找人聊天，有人说，“是你心理作用太强。”有人说，“别瞎想，好好睡觉。”得到的最好回应，就是淡淡的一句，“检查完把结果告诉我。” 当时心里很感动的好吗？ 胡歌主演的电视剧《神话》里有一个对白我至今记忆深刻，崔文子对易小川说：“看着吕素姑娘在我面前就这么死了，我是个大夫，你知道我有多难受吗？你问过吗？”配合着崔文子横流的眼泪和沙哑的声音。 我想，我们寻求理解与安慰，我们压抑着我们对安慰和理解的渴求的时候，那心情是不是同崔文子一样？ 然而，“亲戚或余悲，他人亦已歌”，这才是我看到的生活。 喜怒忧思，爱恨情仇，真的只是一个人的事情。你爱上了别人，自己觉得一往情深深几许，自己先把自己感动了一遍，对方却若无其事，虽然你们身在此时此地，心却远得判若云泥。我喜欢阅读旅游码字，你却喜欢交际酒桌谈话。人类悲欢的不相通，竟然到了这个地步。 别人不理解你，你有时针锋相对，互不相让，有时自觉索然，独来独往。不是别人的问题，而是因为他是一个正常人，他正常地生活，他知道自己没有义务理解你，也没有义务时时去感受你的情绪和需要，并且回应你。他不傻，他懂得分寸，而你却不懂。 我们为什么需要理解，需要安慰和分享？就是因为我们不能独自承担个人的悲欢，在风雨中，我们常常深感个人的渺小，深感个人力量的匮乏。我们把个人的悲喜看得太重，因为在我们看来。这是世界，而我们常常忘了，在世界看来，我们只是一个人。",1055,悲??述?微笑
149,"2018-10-27 00:34:01",街口,爱情散文,2017-10-07,,922,吉他不哭
150,"2018-10-27 00:34:04",归宿,爱情散文,2017-10-05,,786,青儿
151,"2018-10-27 00:34:09",谈“歌曲创作的方向”,生活随笔,2018-06-01,,24,小小的太阳
152,"2018-10-27 00:34:13",敢作敢当，争做新时代好干部,生活随笔,2018-05-30,"日前，中共中央办公厅印发《关于进一步激励广大干部新时代新担当新作为的意见》，明确新时代好干部的标准，要求弘扬忠诚老实、公道正派、实事求是、清正廉洁等价值观，不断增强政治定力、纪律定力、道德定力、抵腐定力。 历史只会眷顾坚定者、奋进者、搏击者，而不会等待犹豫者、懈怠者、畏难者。当前，改革发展稳定任务之重、矛盾风险挑战之多、治国理政考验之大都是前所未有的。很多工作没有实践经验可供借鉴，只能摸着石头过河；许多“老大难”问题随着形势的变化衍生出不少新问题，如同“拦路虎”“绊脚石”般，跨过去并不容易。这种情况下，尤其需要干部不畏风险挑战，不惧艰难险阻，敢闯敢试，敢于担当，打破利益固化的藩篱，趟出新路，推动新时代中国特色社会主义事业不断向前。这样的干部，是时代的引领者、推动者、实践者，是时代迫切需要的人才。 有为才有位，用人重实干。战国齐宣王使人吹竽，三百人齐吹，便有了投机倒把、浑水摸鱼的南郭处士。齐?王好听独奏，让不会吹竽的南郭再无生存之路。在实现伟大复兴中国梦的当下，党和国家事业正在稳步推进，对广大干部也提出了新要求，新时代决不允许有不作为的干部，更不允许有滥竽充数的“带病提拔”现象。广大干部要深刻认识历史使命，切实强化责任担当，以真抓实干的态度，从一而终地落实为人民办实事，从工作实绩中实现个人价值追求。 日新月异的现代化进程，亟需一批能够适应新时代发展要求的党政人才，人民日益增长的美好生活需要，呼唤那些专心致志为党和人民谋事创业的干部。广大干部应当在《意见》的指引下，保持见贤思齐、奋发有为之姿，努力提高适应新时代、实现新目标、落实新部署的能力，着力弥补知识弱项、能力短板、经验盲区，通过不断积累增强自身本领，涵养担当作为的信心，增添破解难题的智慧，提升造福于民的能力，使个人成长路径进一步符合国家发展、社会需要与人民利益。 敢做敢担当，无为即无能。自发布中央八项规定、六项禁令、反对四风以来，政治环境和干部工作作风都得到了强力约束，但也存在一些干部过度解读的现象。宁愿不作为，也不去敢作为，不敢担当，怕担责任，怕出风头。要破除部分干部畏首畏尾的思想，正确理解约束的作用。正确运用忧患意识，变“怕出错”为“怕落后”，“ 怕担责”为“怕平庸”。在战争年代，敢担当是敢冲锋陷阵；在今天，敢担当是敢改革、敢创新。要把工作干好，难免有磕绊，不免触及矛盾，广大干部要以平庸无为为耻，充分发挥个人才能，推动各项工作取得新成绩。 《意见》的出台，充分彰显了中央全面推进从严治党、狠抓干部作风、严厉打击“不作为、懒作为、乱作为”的决心，彰显了我们党保护干部干事积极性、旗帜鲜明为敢于担当的干部撑腰鼓劲的决心。广大干部一定要见贤思齐、奋发有为，撸起袖子加油干，用行动回报期待，用奋斗谱写未来",31,樱桃
153,"2018-10-27 00:34:15",新时代领导干部要有新担当新作为,生活随笔,2018-05-30,"近日，中共中央办公厅出台了《关于进一步激励广大干部新时代新担当新作为的意见》，树立重实干重实绩的用人导向，要求大力选拔敢于负责、勇于担当、善于作为、实绩突出的干部。新时代呼唤新担当、新作为，呼唤全面改革创新，要凝聚亿万人民群众的共识，也需要各级领导干部迎难而上、不计毁誉的闯劲干劲和担当精神。改革走到今天，碰到的全是“硬骨头”，不管在哪个领域，改革者遭遇的挑战，必是一场触动既得利益、既有格局的深层变革。唯有敢于担当，才能无私无畏；唯有鼓励“敢于担当”，甚至宽容一些改革进程中的失误，才能更激发出改革者的创新勇气和智慧。 《 关于进一步激励广大干部新时代新担当新作为的意见》包括七个方面：一、大力教育引导干部担当作为、干事创业；二、鲜明树立重实干重实绩的用人导向；三、充分发挥干部考核评价的激励鞭策作用；四、切实为敢于担当的干部撑腰鼓劲；五、着力增强干部适应新时代发展要求的本领能力；六、满怀热情关心关爱干部；七、凝聚形成创新创业的强大合力。 习近平总书记在系列重要讲话中多次指出，责任担当是领导干部必备的基本素质，并强调干部就要有担当，有多大担当才能干多大事业。什么是责任担当？敢于担当，党的干部必须坚持原则、认真负责，面对大是大非敢于亮剑，面对矛盾敢于迎难而上，面对危机敢于挺身而出，面对失误敢于承担责任，面对歪风邪气敢于坚决斗争。清正廉洁，党的干部必须敬畏权力、管好权力、慎用权力，守住自己的政治生命，保持拒腐蚀、永不沾的政治本色。 为什么要责任担当？改革开放40年来，我们以敢闯敢干的勇气和自我革新的担当，闯出了一条新路、好路，实现了从“赶上时代”到“引领时代”的伟大跨越。我们的权力是党和人民赋予的，是为党和人民做事用的，只能用来为党分忧、为国干事、为民谋利。怎么做到责任担当？“功成不必在我”，不是消极、怠政、不作为，而是要牢固树立正确政绩观，既要做让人民群众看得见、摸得着、得实惠的实事，也要做为后人做铺垫、打基础、利长远的好事，既要做显绩，也要做潜绩。不计较个人功名，追求人民群众的好口碑、经过历史沉淀后真正的评价。既要到工作局面好和先进的地方去总结经验，又要到困难较多、情况复杂、矛盾尖锐的地方去研究问题，特别是要多到群众意见多的地方去，多到工作做得差的地方去，既要听群众的顺耳话，也要听群众的逆耳言，这样才能听到实话、察到实情、收到实效。各级干部特别是领导干部要结合贯彻落实党的十九大精神真正动起来、深下去，切实把存在的矛盾和问题搞清搞透，把各项工作做实做好。 潮起海天阔，扬帆正当时。广大干部是党和国家的宝贵财富。各级党组织一定要以《意见》出台为契机，健全完善科学的选拔和调整机制，优者上、庸者下、劣者汰，让敢于担当作为者得重用、受褒奖，让碌碌无为者让位子、受警醒，真正激励和鞭策更多干部积极投身党的事业，奋力谱写社会主义现代化新征程的壮丽篇章。行胜于言，撸起袖子加油干、带头干，方能在实现中华民族伟大复兴的征程上展现新担当、新作为，留下最闪耀的功勋、最无悔的记忆",32,樱桃
154,"2018-10-27 00:34:19",明史以明志，福大学子重温母校传统文化,生活随笔,2018-05-17,"“大学之道，在明明德，在亲民，在止于至善。”为了庆祝福州大学建校六十周年，进一步增强福大学子对母校特色文化的认识，5月14日下午福州大学2016级市场营销01班团支部联合福州大学2016级土木工程04班团支部以及2016级交通运输类2班团支部一起走进福州大学校史馆，开展以“明校训，品传统”为主题的团立项活动。 在校史馆前，同学们再次重温了“明德、至诚、博学、远志”的福大校训，“唯天下至诚，为能尽其性……”郎朗的诵读声不绝于耳。进入馆区内，同学们依次参观了学科建设、科学研究、人才培养等几个模块，近距离了感受了福州大学建校以来的筚路蓝缕、艰苦奋斗的历史。同学们认真参观，在聆听讲解员的讲解时，不禁为母校先辈的创业精神所动容，有的同学还掏出了手机做起了记录。 通过参观学习，同学们进一步了解了福州大学光荣的传统和历史，实地感受了福州大学在长期求知、笃学的风雨历程中形成的三种精神：建校初期张孤梅等老一辈同志艰苦奋斗的创业精神，卢嘉锡先生严谨求实的治学精神，魏可镁院士勇于拼搏的奉献精神。 同学们在思想上经历了一次精神洗礼，他们纷纷表示，参加此次活动感触很大，收获很多。“先辈的精神激励着我们，加深了我对校训“明德、至诚、博学、远志”的理解”，这次活动激励我不断努力",41,小星星233
155,"2018-10-27 00:34:33",明史以明志，福大学子重温母校传统文化,生活随笔,2018-05-17,"“大学之道，在明明德，在亲民，在止于至善。”为了庆祝福州大学建校六十周年，进一步增强福大学子对母校特色文化的认识，5月14日下午福州大学2016级市场营销01班团支部联合福州大学2016级土木工程04班团支部以及2016级交通运输类2班团支部一起走进福州大学校史馆，开展以“明校训，品传统”为主题的团立项活动。 在校史馆前，同学们再次重温了“明德、至诚、博学、远志”的福大校训，“唯天下至诚，为能尽其性……”郎朗的诵读声不绝于耳。进入馆区内，同学们依次参观了学科建设、科学研究、人才培养等几个模块，近距离了感受了福州大学建校以来的筚路蓝缕、艰苦奋斗的历史。同学们认真参观，在聆听讲解员的讲解时，不禁为母校先辈的创业精神所动容，有的同学还掏出了手机做起了记录。 通过参观学习，同学们进一步了解了福州大学光荣的传统和历史，实地感受了福州大学在长期求知、笃学的风雨历程中形成的三种精神：建校初期张孤梅等老一辈同志艰苦奋斗的创业精神，卢嘉锡先生严谨求实的治学精神，魏可镁院士勇于拼搏的奉献精神。 同学们在思想上经历了一次精神洗礼，他们纷纷表示，参加此次活动感触很大，收获很多。“先辈的精神激励着我们，加深了我对校训“明德、至诚、博学、远志”的理解”，这次活动激励我不断努力",40,小星星233
156,"2018-10-27 00:34:35",浦江儿女天山情（第四章41）,生活随笔,2018-03-23,"(四十一)改乘班车回伊犁1985年8月26日,马建勋突然来电台，又匆匆离去，到武汉大学学习。听说这是中国作协委托武汉大学举办的插班生，共20名，学制二年，毕业后发给大学本科文凭。学生不举行入学考试，由各省、市、自治区文联推荐。新疆就小马一人。这真是难得的机遇！开始，电台领导不同意他去上学。后来，经过小马的软磨硬泡，电台终于同意。但四千元的两年学费，电台暂时无法解决，以后再说。马建勋一走，伊犁记者站又剩下我一个人了，身上的担子更重了，调动的?就更难办了。9月5日,天气突变，气温骤降。打开行李包，取出棉毛裤、毛衣穿在身上，顿觉暖和多了。多亏莲香想得周到，托人带来了衣服。否则，就得挨冻受罪了。想到莲香的体贴关心，一股暖流涌上心头。今天抓紧时间编排了几组经济信息播出稿，一直编排到本月十六日。估计刘海再过十来天就探亲回来了。这样，等我十日左右回家时，还有一周的播出稿备用，不会影响经济信息节目正常播出。我回家也就放心了。9月9日清晨，乘电台交通车前往民航售票处排队买机票。等了两个多小时，好不容易排到柜台跟前，售票员却冷冰冰地说：“明天没有飞伊犁的班机，星期四才有，请到星期三再来买票吧！”我一听，气呼呼地转身就走。来到西大桥路边花园，坐下来复习功课。下午四点去新华分社参加考试。试题并不难，估计可得良好成绩。走出考场，立即前往农四师办?处购买明天中午去伊犁的班车票。与其等到星期四乘飞机，还不如明天乘班车回去，还能提前一天回家。9月11日,昨天乘班车离乌返伊，今天就到家了。久别重逢的两个女儿欢欣雀跃，亲热地围着我问长问短。我抚摸着她们的小脑袋，觉得长高了，也懂事了。她们争先恐后地告诉我，她们在家里学会了做饭、炒菜，还打了煤砖。我会心地笑了，一个劲地夸奖她们姐妹俩真能干！傍晚，莲香回来了。我从行李包里取出给她买的风衣、背心，还有给两个女儿买的糖果、自动铅笔等礼物，分别送给她们。9月13日,听家里来信说，南汇县新成立电视台，正需要记者，让我写信联系一下。今天抽空分别给父母、安龙弟、王永梅写信，告诉他们我已给上海市南汇县人?局苏永奎去了信，并将我和莲香的简历也一起寄给了他。我只是想试探一下，?不抱多大希望。能调回家乡工作当然最理想，调不回去也就算了。同时，给自治区党委组织部王树臻去信，告知我的近况。老王是十多年前一起在新疆日报编辑部帮助工作时相识的老朋友。他在兵团报社工作时，我和他在新闻业务上有过往来，曾有书信联系，调到自治区组织部工作后，联系就少了。9月28日,收到南汇县人事局来信。来信说，欢迎我回家乡工作，并寄来一张科技专业人才交流登记表，让我填写后寄去。我立即填写了登记表，到邮局寄走。同时，给安龙弟回信，祝贺他找了个理想的爱人。这是他在南汇县人民医院外科当医生时认识的一位病人，名叫耿萍，在银行工作，比他年轻",223,王龙生
157,"2018-10-27 00:34:37",浦江儿女天山情（第四章40）,生活随笔,2018-03-22,,41,王龙生
158,"2018-10-27 00:34:38",浦江儿女天山情（第四章39）,生活随笔,2018-03-21,,146,王龙生
159,"2018-10-27 00:34:40",浦江儿女天山情（第四章38）,生活随笔,2018-03-20,,230,王龙生
160,"2018-10-27 00:34:45",浦江儿女天山情（第四章37）,生活随笔,2018-03-19,"(三十七)车到山前必有路1984年12月1日,“爸，下雪了，好大的雪呀！”王谦推开房门，冲着我兴奋得叫喊起来。我穿好衣服，推门一看，果然下雪了。洁白的雪花悄无声息地飘落下来。整个院子变成了玉雕银妆。房屋披上洁净的素装，地面铺上厚厚的雪被，院中那棵苹果树的枝头被积雪压得下垂，围墙顶戴上了白毡帽。我戴上手套，拿起大扫帚、推雪板，在屋前过道上开始扫雪。刚扫干净砖地上，一会儿又铺上了一条白毡子，我的帽子上、衣服上也沾满了雪花。晚上，在我家举行简朴而又热闹的欢送宴会，欢送将要调到宁波工作的上海老乡、老友薛春林。12月2日,雪后天晴，气温骤降，大街小巷，冰封雪冻，一道道车辙，高低不平，行人和骑自行车的人一不小心就滑倒。我和莲香挤上公交车，到彭财珍家去。莲香说，吴其昌上学去了，彭财珍一个人又要上班，又要忙家务，还要带三个女孩，真够辛苦的。我们去看看她，帮她扫扫煤房顶上的积雪。如有脏床单、脏被套，拿到我们家里，用洗衣机洗。来到彭财珍家，她正在忙家务，三个女孩在看电视。闲聊一会后，我爬上煤房顶扫雪。12月20日下午，趁马建勋打长途电话汇报记者站建房事项，我接过话筒，又一次询问关于佟林清的调动问题。因为电台领导曾明确表态，只要把佟林清调到记者站，我和莲香就可以一起调回电台。好不容易伊犁日报社和州党委组织部同意放佟林清了，却万万没想到，邵强在电话中一口回断：“佟林清不调了，把材料退给本人。”说完，就立即挂断了电话。看来，调回电台是没有多少希望了！为什么领导的态度一下变了呢？我想起第二次请调报告中曾这样写道：“有人说，如今党风不正，社会上流行请客送礼。如果不请客，不送礼，什么事都办不成。我说，我宁可不调回电台，也不干这种不体面的事！”也许这几句话得罪了领导，惹了祸。如果真是这样，我更想不通了。调到记者站工作八年来，我勤奋工作，长年累月下乡出差，采访写稿，年年月月超额完成任务。这和爱人的全力支持分不开的。如今，爱人身患类风湿关节炎，日趋严重，时常复发，疼痛难忍，需要照顾。这就必然影响我出差采访，很难完成任务。鉴于这种情况，我已不适合在记者站工作。只有调回电台编辑部当编辑，既能照顾爱人身体，又不影响工作。没想到工作调动竟如此难办！真让人寒心！看到我唉声叹气，莲香劝我：“别难过，想开些。乌鲁木齐晚报不是要调你吗？能调到晚报也行。如果电台不放，就在记者站工作，能干多少就干多少。别发愁，我还没有瘫痪呢，车到山前必有路。只要一家人互相照顾，和睦相处，好好过日子，没有啥大不了的?！”12月30日,昨晚从新华分社招待所搬到博格达宾馆住宿，四人一间，每人每晚住宿费四元五角。这里比较安静，有利于学习和休息。今天上午，去乌鲁木齐晚报副总编黄秉荣家。谈起工作调动一?，老黄说，只要电台同意放，报社肯定要。下午，到电台找新闻部主任邵强询问调动问题",80,王龙生
161,"2018-10-27 00:34:48",浦江儿女天山情（第四章36）,生活随笔,2018-03-18,"(三十六)同学改行去经商1984年11月16日下午，我正在家里埋头写稿，突然，马建勋敲门进来。他说，这两天正在办移交手续，等办完后就来记者站上班。我泡了一杯茶递给他，并将办公室和自行车的钥匙交给他。小马原是《伊犁河》文学杂志的散文编辑，因同事之间关系处理不好，闹矛盾，故坚持要调来记者站工作。小马热爱文学创作，特别喜爱游记、散文，曾在报刊发表过不少作品，有的还获过奖。如果继续干下去，肯定会出成果。改行当记者，就没有多少时间搞文学创作了。难道他真的喜爱新闻这一行？不得而知。11月18日,好久没有见到老同学倪九龙了。听说他考上自治区党校，因文革中有些问题没搞清楚，师党委卡住不放。后来调查清楚，没啥问题，上学报到时间早已过去，名额作废，去不了。领导不让他回组织处工作，调到师干校当教员，他不愿去。后来又让他到师工会农工部当部长，他也不去。现在究竟分到哪里工作，我不免为他着急起来。傍晚，骑车去他家探望。一进门，我就迫不及待地问：“怎么样，工作分配了没有？”他笑而不答，让我猜测。我连猜了几次，都没有猜对。他笑眯眯地说：“我和顾文龙等三人联合打报告，准备组建农四师贸易中心。报告一送上去，师党委很快就批准了，表示坚决支持。先成立筹备小组，目前就我们三个人。怎么样，出乎意料，没想到吧？”我一听，惊呆了！干了半辈子政工，突然改行经商，真想不到！听他说，贸易中心独立核算，自负盈亏，这要冒多大风险呀！我真为他担心。11月25日,又停电了，洗衣机用不成，莲香将脏衣服从洗衣机里拿出来，泡进那只洗澡用的大盆里。王颖挽起衣袖，搬来小凳子坐下，开始洗衣服。两只小手在肥皂泡沫里上下翻动，使劲搓洗。满满一大盆脏衣服，足足洗了一个多小时才洗完。“唉呀，累死我了！”她洗完衣服，站起来，洗了手，坐在靠背椅上，累得直喘气。我赶紧弯腰端起大盆，将脏水倒进水桶，提到院子外面倒掉。“你们快吃饭去，我来清洗衣服。”莲香往大盆里倒上清水，又倒了些热水，一件件清洗起来。我匆匆吃完早饭，接替她清洗起来。刚清洗完衣服，就来电了。正准备用洗衣机洗床单，却又停水了。水、电供应不正常，给居民生活带来多少麻烦！11月26日,骑上自行车，向伊宁市西北方向驶去。越过巴彦岱小镇，下了公路，拐进一条土路，使劲蹬车，好不容易上了一个土山包。前面是一片墓地，土坟堆一个挨一个。坟堆前面立着墓碑，有的是木板，有的是水泥板。翻过土山包，沿着弯弯曲曲的土路，推车上坡前行四、五公里左右，便到了火龙洞。所谓火龙洞，其实就是地下煤层自燃引起的热气喷出地面，有人就地挖洞，利用地下冒出来的热气烘烤，治疗皮肤病和风湿性关节炎，据说效果不错。冬天这里冷冷清清，很少有人。一到夏天",252,王龙生
162,"2018-10-27 00:34:52",浦江儿女天山情（第四章35）,生活随笔,2018-03-17,,102,王龙生
163,"2018-10-27 00:34:56",浦江儿女天山情（第四章34）,生活随笔,2018-03-16,,166,王龙生
164,"2018-10-27 00:35:00",浦江儿女天山情（第四章33）,生活随笔,2018-03-15,"(三十三)探亲回来上函大1984年5月2日,天蒙蒙亮，赶紧起床，生火热饭。一会儿，莲香也起来了，煮了几个鸡蛋，让我带在路上吃。吃过早饭，告别莲香和两个孩子，乘车去乌鲁木齐参加中国人民大学函授学院新闻系招生考试。一路上，我捧着学习笔记本默背起来。乘车颠簸一天，默背了一天学习笔记。复习功课的时间实在太少了，不得不临阵磨枪，抓紧一切时间复习功课，准备考试。5月6日,今天参加人大函授学院招生考试，心里特别紧张。上午考语文、史地，下午考政治、数学。四门课一天考完。语文、政治考得比较满意，史地不太理想，数学最差。许多数学试题看也看不懂，更不要说答题了。据说参加这次招生考试的有250多人，招生名额才一个班，录取比例较小，不知能否考上。5月12日, 翻阅、整理近半个月的报纸，办理通行证，买面粉、清油、苞谷面。傍晚，抬了两袋面粉、一袋大米、三公斤清油送到夏鹤芬家里。我们准备回沪探亲时将两个孩子托给他们管，在他们家搭伙吃饭。房屋、院子也委托他们代管。9月1日,今天，边城伊宁阳光灿烂，红旗招展，披上了节日盛装。天刚蒙蒙亮，大街上便响起音乐声、脚步声和汽车喇叭声。一支支群众队伍抬着横幅标语从大街小巷汇集到露天体育场，参加伊犁哈萨克自治州成立三十周年庆祝大会。出席庆祝大会的有王恩茂、司马义艾买提等自治区党政领导同志。因我刚探亲回来，又忙于准备察布查尔锡伯自治县成立三十周年的稿子，所以没有担任这次州庆活动的报道任务。电台新闻部主任邵强、蒙古族记者巴德马专程赶来，承担州庆报道任务。我以来宾的身份，登上大会观礼台，观看庆祝大会的盛况。昨晚还出席了州庆盛大宴会。从5月15日离开伊犁回沪探亲，足足有三个半月时间没有工作。回到上海，正遇上岳父母家搬迁新居，帮忙装饰新房，忙了一个多星期。白天干活，晚上住在杨浦公园边上的临时房里，狭小、闷热、潮湿，蚊子又多，难以入眠。装饰完新居后，我和莲香一起回家看望父母弟妹。多年没回来了，家里变化真大！小弟建明已结婚、生孩子了，跟父母一起住在新盖的楼房里。安明弟家也翻建了楼房。不知何故，大弟安龙至今还未结婚成家。母亲前年已退休，她却闲不住，仍坚持参加地里劳动，每年能挣九百多元。她说，趁身体好，还能干，多攒钱，盖楼房，好让我们将来退休回来后有房住。真是可怜天下父母心！其实，这又何必呢！在家休假不到一个月，便独自提前赶回乌鲁木齐，参加中国人民大学函授学院新闻系新疆新闻班学习，由人大教授给我们上课。第一阶段上课学习结束，在乌鲁木齐等候莲香和严静从上海回来后，一起离乌返伊。9月11日,今天，察布查尔锡伯自治县一万多名各族群众隆重集会，热烈庆祝自治县成立三十周年。我背上录音机，来到会场采访。大会一结束，乘车赶回伊宁市，到邮电局电话传真采录的会场音响。文字",226,王龙生
165,"2018-10-27 00:35:03",浦江儿女天山情（第四章32）,生活随笔,2018-03-14,"(三十二)院子空地种蔬菜1984年4月2日,前天在院子空地上种了小白菜、菠菜，今天又播下了韭菜、莴笋、萝卜的种子，还点种了瓜、豆。许多蔬菜种子都是由夏鹤芬提供的，有些种子是从农贸市场买来的。进疆工作以来第一次自己动手在自己院子里种菜，没有经验，不知能否生长、成熟，心里没有把握。4月8日,春日融融，麦苗青青。我们全家四口，加上小莉莉，一起骑车向巴彦?驶去。我的自行车上前面坐着小莉莉，后面坐着王谦。我们应邀去严雪平、王虹家作客。老严援外两年，回家探亲。一进他们家，只见屋里放着二十寸的大彩电、六喇叭的立体声收录机、日立牌双缸洗衣机、双门电冰箱，全是外国名牌货，光闪闪，亮晶晶，惹人喜爱。据老严介绍，这些家电在国内市场上买至少要花六千元，而用外汇买只花两千多元，真是物美价廉。老严每次出国回来，总要带些家电回来。我们也一饱眼福，大开眼界。晚上刚回家，上海老乡、好友薛春林就匆匆来了。他回沪探亲回来，给我们捎来了莲香家送的香肠、糖果等食品，还有莲萍送给王颖的衣服、裤子、裙子。小薛滔滔不绝地给我们介绍上海和宁波的情况。4月16日早餐后，骑车把莲香送到伊犁技校上班(她因类风湿关节炎发病无法骑车)，尔后到伊犁州党委组织部采访。组织科长温茂林热情地给我介绍情况，还找了几份材料，供我参考。采访回来，接到电台记者组长张静如的电话，询问有关马建勋的情况，我如实反映：“州党委宣传部长刘永焕不同意他调走。州创作办公室人员不够，准备调人，怎么能把小马调走呢？小马之所以不安心工作，主要是因为同事之间关系不好，并不是他不爱文艺创作这一行。”老张在电话中还说，中国人民大学函授学院新闻系招生，五月六日集中考试，半脱产学习，学制三年，毕业后颁发国家承认的大专学历文凭，问我是否报考。我当即表示同意报考。4月20日,为了让我腾出更多时间复习功课，准备考试，莲香忍着关节疼痛，尽量多承担家务。昨晚一躺在床上，她就呻吟起来，说是肩关节痛得厉害。我劝她好好休息，别太劳累了。今天上午，我正在家里专心致志地复习功课，突然电话铃响。我拿起话筒，是莲香打来的电话。她说，王建华帮我们买了十只小鸡，让我赶快去拿回来。我立即骑车去技校取小鸡。这些小鸡扑闪着小翅膀，互相追逐嬉戏，“吱吱”地叫，逗人喜爱。4月28日早晨，天阴沉沉的，我对两个女儿说：“你们把雨伞带上，可能要下雨。”她俩却背起书包毫不介意地边走边说：“下不了雨，没关系！”说完，便一溜烟跑了，不见踪影。不一会儿，果然下起毛毛细雨。到中午时，雨越下越大。莲香催促我快去给两个孩子送雨伞。我披上雨衣，骑上自行车，迎着大雨向伊宁市六中驶去。谁知到六中初一(1)班教室一看，不见她俩身影。一位男同学",49,王龙生
166,"2018-10-27 00:35:07",浦江儿女天山情（第四章31）,生活随笔,2018-03-13,,160,王龙生
167,"2018-10-27 00:35:12",浦江儿女天山情（第四章30）,生活随笔,2018-03-12,"(三十)职称考试过难关1983年8月1日清晨，乘车去新源县采访。车过黑山头时，旅客们下车吃饭。只见食堂旁一群维吾尔族巴郎蹲在地上，周围挤满了围观的人。过去?看，才发现原来在赌博。用3张扑克牌，其中2张黑牌,1张红牌，赌主不停地翻动3张扑克牌，让别人猜，猜中红牌则赢，错拿黑牌则输。每次少则十元，多则五、六十元。有人连着输了一百五十元，后来连手表也输掉了。同车的?位汉族小伙子，偶尔碰巧猜中了红牌，赢了十元，就想离开。赌主不让他走，要他继续赌，他坚持要走，双方争执起来。那伙维吾尔族巴郎蜂拥而上，拳打脚踢，把那个汉族小伙子打得鼻青脸肿，血流满面，随即一哄而散，扬长而去。围观群众愤愤不平，却又无奈。8月9日上午，乘车从新源县返回伊宁市。一进家门，莲香就说：“真巧你回来了，我正准备打电话，叫你赶紧回来呢！”原来，电台记者组来电话，通知我们8月15日前赶回电台，集中4个月时间，复习功课，准备新闻职称考试。8月17日,终于买上了明天的飞机票。如果天气好，没有什么特殊情况，明天就要回电台集中复习功课，准备考试了。临走前，抽空买了两袋面粉，够一家人吃三、四个月了。收拾整理行李，准备明天乘飞机离伊去乌。1984年2月20日 ,自从去年八月下旬以来，半年多时间没记日记了。这半年中，有几件事值得补记如下：其一，复习功课，参加全国新闻职称评定测试。电台驻站记者参加这次全国通考的有林战青、梁瑛明、刘和峰、毛耀庭、赵飞、周川和我。除三人有单门课不及格需补考外，其余四人(包括我在内)均考试合格，有资格参加新闻职称评定。终于过了这一“鬼门关”，压在胸口的一块石头落了地。为了这次通考，废寝忘食地复习功课，临考前一周，几乎天天晚上失眠，心跳加剧，浑身出汗。考试时别提有多紧张了。心脏“扑通、扑通”地跳，握笔的右手不停地颤抖，字也写得歪歪斜斜，真是紧张极了。其二，伊犁记者站的同事贾显义调到湖北省黄石市工作。记者站只剩下我一个人了，一切事情都由我一人承担，责任更重了。其三，参加电台召开的记者工作会议。会议期间，每个党员写了一份“关于文化大革命期间重大事件的态度和表现”的交待材料。其四，今年二月六日，给电台新闻部党支部写了一封信，主要内容是，近半年来，爱人盛莲香为了支持我工作和学习，带病坚持工作，操劳家务，致使类风湿关节炎越来越严重，经常患病，疼痛难忍。我继续当驻站记者，不出差不行，出差就照顾不了爰人身体，不放心。这是一个比较辣手的难题。为了既能照顾爰人，又不影响工作，希望组织上把我们两人一起调回电台工作。如果电台无法解决，只好调离电台，自找出路了。尽管如此，工作还得好好干，站好最后?班岗。2月21日,今天又同莲香谈起请求工作调动问题。她说：“能一起调回电台工作，当然最理想。如果调不回去，就安心在记者站工作。冬天要扫雪，尽量少出差。等天气暖和了，你愿意出差就出差吧，我不拖累你。”我关切地说：“我出差后，你类风湿关节炎发病怎么办？”“没关系，疼几天后就好些。现在能坚持就坚持一下，等到将来实在不行了，再找领导给予照顾。”听她这么一说，我想也有一定道理。只要自己克服困难，努力",167,王龙生
168,"2018-10-27 00:35:15",浦江儿女天山情（第四章29）,生活随笔,2018-03-11,,178,王龙生
169,"2018-10-27 00:35:18",浦江儿女天山情（第四章28）,生活随笔,2018-03-10,"(二十八)电台评选当先进1983年1月25日,昨天傍晚，王颖、王谦放学回家。老二心直口快，一进门就说：“爸，妈，老师说，让家里明天早上每人煮两个鸡蛋吃，增强记忆力，考好试。”莲香解释说：“这是老师让你们好好复习功课，争取每人考个100分。这学校也怪，学生考试还让家长煮鸡蛋吃。现在是冬天，鸡很少下蛋，谁家有哪么好的条件？行了，只要你们考个好成绩，妈是舍得给你们吃的，明天就叫你们爸煮鸡蛋吧！”今天清晨起来，生火，热饼子，煮鸡蛋，每人两个，拌上白沙糖，又香又甜，吃得津津有味。2月2日骑自行车去伊犁州机械化养鸡场买鸡蛋，累得浑身冒汗，连衬衣都湿透了。路上冷风一吹，原来就有点感冒，这下更严重了。回到家里，浑身发冷，头痛，咳嗽，乏力。中午洗完澡，在床上躺一会儿。莲香一个人洗衣、擦地、倒脏水，实在太幸苦了。忙完活，开了个桔子罐头给我吃。我吃了一半，留下一半给她们母女尝尝。2月18日,春节期间，我们和夏鹤芬、吴其昌、陈克强四家轮流作东请客，今天来我家，明天到你家，喝酒吃饭，聊天说笑，十分热闹。另外，还应邀去新疆日报伊犁记者站任怀义和农四师医院温佐伦家作客。今天，才安安稳稳呆在家里，哪儿也不去，就在家里浏览报刊。这几天，电台连续广播了4篇春节前采写的稿子，新疆日报刊用1篇，伊犁日报刊用3篇。这也算开了个好头，今后要继续努力才行。3月8日,莲香的肩关节又痛了。大慨是前两天洗衣、洗鱼时又用冷水了。我说：“叫你不要用冷水洗，你不听。这下又犯病了。往后，再也不要用冷水洗东西了。”清晨，我叫她起来活动活动，锻炼身体，还教她做简便气功和保健操。她照猫画虎地做了几遍。我鼓励她：“今后要坚持天天做，只有持之以恒，长期坚持锻炼，才能见效。”3月29日,多年未见面的老同学胡瑞番突然闯进家门。他还是那副模样，瘦削的脸上多了几道鱼尾纹。他慢声细语地同我说话，时而“嘿嘿”笑几声。听他说，他还在七十七团场，已经不在连队当会计了，调到团场子校当教务主任了。他的妻子是四川农村姑娘，比他小七、八岁，现在已是两个孩子的母亲了。我拿出烟茶糖果招待，挽留他吃晚饭，看电视。5月2日,吃过早饭，收拾行李，匆匆去民航站候车。王颖、王谦轮流帮我背行李，一直送到民航站。在机场，莲香和王建华也赶来送行。正巧她们学校组织教职员工来飞机场附近春游，顺便来送送我。一下飞机，就乘车前往电台，在吴治帮家闲聊了两个多钟头。5月13日下午，电台记者工作",116,王龙生
170,"2018-10-27 00:35:20",浦江儿女天山情（第四章27）,生活随笔,2018-03-09,,223,王龙生